TimeMDT,TemperatureF,Dew PointF,Humidity,Sea Level PressureIn,VisibilityMPH,Wind Direction,Wind SpeedMPH,Gust SpeedMPH,PrecipitationIn,Events,Conditions,WindDirDegrees,DateUTC
12:54 AM,21.0,10.9,65,30.00,10.0,Calm,Calm,-,N/A,,Clear,0,2013-04-11 06:54:00
1:54 AM,19.0,12.0,74,29.96,10.0,SW,3.5,-,N/A,,Clear,230,2013-04-11 07:54:00
2:54 AM,19.0,12.9,77,29.91,10.0,West,4.6,-,N/A,,Clear,260,2013-04-11 08:54:00
3:54 AM,19.9,12.9,74,29.87,10.0,West,3.5,-,N/A,,Clear,270,2013-04-11 09:54:00
4:54 AM,26.1,16.0,66,29.82,10.0,WSW,15.0,-,N/A,,Clear,240,2013-04-11 10:54:00
5:54 AM,26.1,16.0,66,29.81,10.0,WSW,17.3,-,N/A,,Clear,240,2013-04-11 11:54:00
6:54 AM,27.0,17.1,66,29.80,10.0,WSW,19.6,-,N/A,,Partly Cloudy,240,2013-04-11 12:54:00
7:54 AM,32.0,18.0,56,29.79,10.0,WSW,18.4,-,N/A,,Clear,240,2013-04-11 13:54:00
8:54 AM,39.0,21.0,49,29.77,10.0,WSW,16.1,-,N/A,,Clear,240,2013-04-11 14:54:00
9:54 AM,50.0,21.0,32,29.76,10.0,West,10.4,-,N/A,,Clear,270,2013-04-11 15:54:00
11:51 AM,57.2,19.4,23,29.78,10.0,North,10.4,24.2,N/A,,Clear,350,2013-04-11 17:51:00
11:54 AM,57.9,19.0,22,29.73,10.0,North,10.4,24.2,N/A,,Clear,360,2013-04-11 17:54:00
12:54 PM,59.0,19.9,22,29.72,10.0,NW,13.8,24.2,N/A,,Clear,320,2013-04-11 18:54:00
1:54 PM,60.1,19.0,20,29.70,10.0,Variable,3.5,16.1,N/A,,Partly Cloudy,0,2013-04-11 19:54:00
2:54 PM,59.0,19.9,22,29.70,10.0,SW,15.0,25.3,N/A,,Mostly Cloudy,220,2013-04-11 20:54:00
3:01 PM,60.8,21.2,22,29.74,10.0,SSW,9.2,-,N/A,,Overcast,210,2013-04-11 21:01:00
3:54 PM,64.9,17.1,16,29.66,10.0,NW,21.9,28.8,N/A,,Mostly Cloudy,310,2013-04-11 21:54:00
4:47 PM,57.2,21.2,25,29.75,10.0,East,11.5,26.5,N/A,,Mostly Cloudy,100,2013-04-11 22:47:00
4:54 PM,57.0,21.9,26,29.68,10.0,NE,17.3,27.6,N/A,,Overcast,50,2013-04-11 22:54:00
5:01 PM,55.4,24.8,31,29.75,10.0,ENE,18.4,26.5,N/A,,Overcast,60,2013-04-11 23:01:00
5:54 PM,55.0,26.1,33,29.72,10.0,ENE,18.4,-,N/A,,Overcast,60,2013-04-11 23:54:00
6:54 PM,51.1,26.1,38,29.77,10.0,ENE,13.8,-,N/A,,Clear,60,2013-04-12 00:54:00
7:54 PM,45.0,27.0,49,29.80,10.0,East,8.1,-,N/A,,Clear,80,2013-04-12 01:54:00
8:54 PM,41.0,27.0,57,29.83,10.0,ENE,6.9,-,N/A,,Scattered Clouds,70,2013-04-12 02:54:00
9:54 PM,39.9,27.0,60,29.83,10.0,ENE,4.6,-,N/A,,Mostly Cloudy,70,2013-04-12 03:54:00
10:54 PM,35.1,26.1,70,29.85,10.0,Calm,Calm,-,N/A,,Clear,0,2013-04-12 04:54:00
11:54 PM,36.0,26.1,67,29.85,10.0,Calm,Calm,-,N/A,,Clear,0,2013-04-12 05:54:00